GW4724 Weather Reports


time (UTC)temp
F
wind
direction
speed
knots
gust
knots
rain 1hr
in
rain 24hr
in
rain mn
in
humidity
%
barometer
mb
20260507185543 67 150 1.7 3.5 0.00 0.00 0.00 42 1011.2
20260507185039 65 27 0.9 1.7 0.00 0.00 0.00 35 1011.1
20260507184538 65 277 4.3 5.2 0.00 0.00 0.00 37 1011.0
20260507184035 65 148 1.7 2.6 0.00 0.00 0.00 38 1011.2
20260507183530 65 40 1.7 5.2 0.00 0.00 0.00 36 1011.2
20260507183028 64 211 0.9 0.9 0.00 0.00 0.00 38 1011.4
20260507182524 64 16 2.6 6.1 0.00 0.00 0.00 38 1011.3
20260507182020 65 261 0.0 1.7 0.00 0.00 0.00 39 1011.4
20260507181517 63 113 4.3 6.1 0.00 0.00 0.00 38 1011.4
20260507181013 63 144 2.6 5.2 0.00 0.00 0.00 39 1011.6
20260507180510 64 37 4.3 7.0 0.00 0.00 0.00 36 1011.6
20260507180007 63 59 1.7 3.5 0.00 0.00 0.00 38 1011.8
20260507175503 64 54 1.7 6.1 0.00 0.00 0.00 39 1011.9
20260507175000 64 264 2.6 3.5 0.00 0.00 0.00 43 1011.9
20260507174458 64 325 1.7 5.2 0.00 0.00 0.00 40 1012.2
20260507173955 64 31 1.7 3.5 0.00 0.00 0.00 39 1011.9
20260507173452 64 179 0.0 2.6 0.00 0.00 0.00 39 1012.2
20260507172949 64 156 0.0 5.2 0.00 0.00 0.00 44 1012.4
20260507172445 63 21 0.9 6.1 0.00 0.00 0.00 41 1012.6
20260507171942 61 329 1.7 3.5 0.00 0.00 0.00 42 1012.5
20260507171438 62 309 4.3 8.7 0.00 0.00 0.00 41 1012.7
20260507170935 62 39 3.5 7.0 0.00 0.00 0.00 42 1012.8
20260507170432 62 94 0.9 2.6 0.00 0.00 0.00 39 1012.8
20260507165928 62 283 2.6 5.2 0.00 0.00 0.00 43 1013.0
20260507165424 61 115 1.7 1.7 0.00 0.00 0.00 44 1012.8
20260507164920 61 272 3.5 5.2 0.00 0.00 0.00 47 1013.0
20260507164417 61 177 1.7 7.0 0.00 0.00 0.00 41 1013.2
20260507163914 61 93 2.6 6.1 0.00 0.00 0.00 46 1013.3
20260507163412 61 60 2.6 7.0 0.00 0.00 0.00 45 1013.3
20260507162908 60 24 6.1 8.7 0.00 0.00 0.00 48 1013.2
20260507162403 60 52 3.5 7.8 0.00 0.00 0.00 41 1013.3
20260507161901 61 67 6.1 12.2 0.00 0.00 0.00 49 1013.4
20260507161357 60 52 2.6 5.2 0.00 0.00 0.00 42 1013.8
20260507160854 61 48 3.5 5.2 0.00 0.00 0.00 51 1013.6
20260507160349 60 346 0.9 2.6 0.00 0.00 0.00 44 1013.9
20260507155846 59 115 0.9 2.6 0.00 0.00 0.00 44 1013.8
20260507155342 59 101 2.6 3.5 0.00 0.00 0.00 47 1014.0
20260507154839 59 49 1.7 2.6 0.00 0.00 0.00 52 1013.9
20260507154336 60 63 3.5 6.1 0.00 0.00 0.00 49 1014.0
20260507153833 58 53 0.9 2.6 0.00 0.00 0.00 46 1014.0
20260507153329 58 34 3.5 6.1 0.00 0.00 0.00 50 1014.0
20260507152826 59 345 2.6 6.1 0.00 0.00 0.00 46 1014.0
20260507152322 58 43 3.5 7.8 0.00 0.00 0.00 49 1014.4
20260507151819 58 340 3.5 7.0 0.00 0.00 0.00 47 1014.2
20260507151315 58 59 1.7 6.1 0.00 0.00 0.00 52 1014.2
20260507150812 58 52 2.6 5.2 0.00 0.00 0.00 49 1014.3
20260507150308 57 38 1.7 5.2 0.00 0.00 0.00 46 1014.7
20260507145805 57 30 7.0 8.7 0.00 0.00 0.00 46 1014.7
20260507145301 57 343 0.0 8.7 0.00 0.00 0.00 48 1014.7
20260507144759 57 61 4.3 7.8 0.00 0.00 0.00 51 1014.7
20260507144256 57 94 3.5 6.1 0.00 0.00 0.00 52 1015.1
20260507143752 56 29 2.6 7.8 0.00 0.00 0.00 55 1014.9
20260507143250 58 340 6.1 7.8 0.00 0.00 0.00 48 1015.0
20260507142745 57 30 3.5 6.1 0.00 0.00 0.00 50 1015.1
20260507142242 57 359 7.8 8.7 0.00 0.00 0.00 48 1015.0
20260507141739 57 110 1.7 5.2 0.00 0.00 0.00 54 1015.1
20260507141236 57 58 2.6 5.2 0.00 0.00 0.00 56 1014.9
20260507140731 56 30 1.7 2.6 0.00 0.00 0.00 51 1015.2
20260507140229 56 356 5.2 7.0 0.00 0.00 0.00 54 1015.4
20260507135726 55 55 0.0 2.6 0.00 0.00 0.00 53 1015.4
20260507135224 55 47 1.7 5.2 0.00 0.00 0.00 55 1015.4
20260507134719 55 58 1.7 2.6 0.00 0.00 0.00 54 1015.6
20260507134216 55 59 0.9 2.6 0.00 0.00 0.00 56 1015.5
20260507133712 54 43 2.6 5.2 0.00 0.00 0.00 59 1015.6
20260507133209 53 43 3.5 5.2 0.00 0.00 0.00 58 1015.7
20260507132707 53 30 4.3 5.2 0.00 0.00 0.00 61 1015.6
20260507132203 53 17 2.6 3.5 0.00 0.00 0.00 59 1015.8
20260507131700 53 36 5.2 7.0 0.00 0.00 0.00 59 1015.8
20260507131157 53 352 0.9 5.2 0.00 0.00 0.00 62 1015.7
20260507130653 52 30 3.5 5.2 0.00 0.00 0.00 60 1015.8
20260507130151 52 12 3.5 5.2 0.00 0.00 0.00 59 1015.8
20260507125650 52 38 4.3 6.1 0.00 0.00 0.00 58 1015.9
20260507125148 52 16 6.1 7.8 0.00 0.00 0.00 58 1015.8
20260507124643 52 31 3.5 3.5 0.00 0.00 0.00 59 1015.7
20260507124141 52 27 2.6 3.5 0.00 0.00 0.00 60 1015.7
20260507123639 52 23 5.2 6.1 0.00 0.00 0.00 57 1015.8
20260507123136 52 58 6.1 7.0 0.00 0.00 0.00 58 1015.4
20260507122631 52 42 2.6 6.1 0.00 0.00 0.00 60 1015.5
20260507122127 52 355 1.7 2.6 0.00 0.00 0.00 61 1015.6
20260507121623 52 37 2.6 3.5 0.00 0.00 0.00 61 1015.6
20260507121119 51 12 1.7 6.1 0.00 0.00 0.00 60 1015.4
20260507120616 51 339 1.7 6.1 0.00 0.00 0.00 64 1015.5
20260507120113 51 342 2.6 3.5 0.00 0.00 0.00 62 1015.5
20260507115609 51 43 2.6 3.5 0.00 0.00 0.00 61 1015.5
20260507115105 51 41 3.5 5.2 0.00 0.00 0.00 61 1015.5
20260507114601 51 47 2.6 5.2 0.00 0.00 0.00 60 1015.5
20260507114058 51 353 0.9 5.2 0.00 0.00 0.00 62 1015.4
20260507113555 51 357 3.5 6.1 0.00 0.00 0.00 61 1015.5
20260507113052 51 26 3.5 3.5 0.00 0.00 0.00 62 1015.5
20260507112550 51 14 0.9 1.7 0.00 0.00 0.00 67 1015.5
20260507112046 51 19 1.7 1.7 0.00 0.00 0.00 64 1015.4
20260507111544 51 18 0.9 2.6 0.00 0.00 0.00 62 1015.3
20260507111041 51 45 0.9 1.7 0.00 0.00 0.00 63 1015.2
20260507110537 51 5 0.9 0.9 0.00 0.00 0.00 63 1015.3
20260507110033 51 5 0.0 1.7 0.00 0.00 0.00 64 1015.3
20260507105530 51 9 0.9 1.7 0.00 0.00 0.00 68 1015.2
20260507105026 51 9 0.9 0.9 0.00 0.00 0.00 66 1015.1
20260507104524 51 9 0.9 0.9 0.00 0.00 0.00 63 1015.0
20260507104020 51 31 1.7 1.7 0.00 0.00 0.00 62 1014.9
20260507103516 51 12 1.7 2.6 0.00 0.00 0.00 64 1014.8
20260507103013 51 42 1.7 1.7 0.00 0.00 0.00 62 1014.7
20260507102510 51 0 0.9 1.7 0.00 0.00 0.00 65 1014.7
20260507102007 51 32 0.9 0.9 0.00 0.00 0.00 65 1014.7
20260507101501 51 348 1.7 1.7 0.00 0.00 0.00 64 1014.8
20260507100958 51 9 0.9 2.6 0.00 0.00 0.00 66 1014.6
20260507100455 51 29 0.9 2.6 0.00 0.00 0.00 70 1014.4
20260507095953 51 37 0.9 2.6 0.00 0.00 0.00 67 1014.6
20260507095451 51 37 0.9 1.7 0.00 0.00 0.00 68 1014.4
20260507094947 51 29 1.7 3.5 0.00 0.00 0.00 66 1014.4
20260507094443 52 39 1.7 2.6 0.00 0.00 0.00 66 1014.3
20260507093941 52 28 2.6 3.5 0.00 0.00 0.00 64 1014.4
20260507093438 52 68 1.7 5.2 0.00 0.00 0.00 65 1014.3
20260507092937 52 40 1.7 5.2 0.00 0.00 0.00 64 1014.3
20260507092432 52 38 2.6 3.5 0.00 0.00 0.00 65 1014.3
20260507091929 52 18 2.6 2.6 0.00 0.00 0.00 65 1014.4
20260507091426 52 10 2.6 3.5 0.00 0.00 0.00 63 1014.4
20260507090921 52 6 1.7 5.2 0.00 0.00 0.00 66 1014.4
20260507090418 52 12 2.6 3.5 0.00 0.00 0.00 64 1014.4
20260507085915 52 357 1.7 6.1 0.00 0.00 0.00 67 1014.3
20260507085412 52 29 4.3 5.2 0.00 0.00 0.00 65 1014.2
20260507084909 52 22 1.7 3.5 0.00 0.00 0.00 68 1014.2
20260507084406 52 49 2.6 6.1 0.00 0.00 0.00 67 1014.1
20260507083903 53 49 2.6 5.2 0.00 0.00 0.00 66 1014.2
20260507083359 53 19 4.3 7.0 0.00 0.00 0.00 65 1014.3
20260507082855 53 347 4.3 6.1 0.00 0.00 0.00 68 1014.4
20260507082351 53 354 1.7 3.5 0.00 0.00 0.00 72 1014.2
20260507081848 53 38 4.3 6.1 0.00 0.00 0.00 71 1014.1
20260507081345 53 41 3.5 3.5 0.00 0.00 0.00 72 1014.1
20260507080842 53 16 1.7 3.5 0.00 0.00 0.00 72 1014.2
20260507080337 53 41 2.6 5.2 0.00 0.00 0.00 73 1013.9
20260507075833 53 48 2.6 5.2 0.00 0.00 0.00 72 1014.0
20260507075329 53 342 2.6 5.2 0.00 0.00 0.00 73 1013.8
20260507074826 53 57 1.7 7.0 0.00 0.00 0.00 74 1013.9
20260507074323 53 53 2.6 3.5 0.00 0.00 0.00 75 1013.6
20260507073820 53 37 3.5 5.2 0.00 0.00 0.00 74 1013.4
20260507073317 53 37 5.2 7.0 0.00 0.00 0.00 74 1013.5
20260507072814 53 52 4.3 6.1 0.00 0.00 0.00 74 1013.6
20260507072312 53 3 2.6 7.0 0.00 0.00 0.00 77 1013.6
20260507071809 53 31 1.7 2.6 0.00 0.00 0.00 77 1013.4
20260507071305 53 18 1.7 2.6 0.00 0.00 0.00 76 1013.9
20260507070802 54 356 1.7 2.6 0.00 0.00 0.00 77 1013.9
20260507070259 54 75 0.0 0.9 0.00 0.00 0.00 77 1013.8
20260507065756 54 14 2.6 6.1 0.00 0.00 0.00 76 1013.9
20260507065253 54 45 3.5 5.2 0.00 0.00 0.00 75 1014.1
20260507064750 54 345 1.7 3.5 0.00 0.00 0.00 76 1014.0
20260507064249 54 54 1.7 3.5 0.00 0.00 0.00 76 1014.1
20260507063746 54 49 3.5 5.2 0.00 0.00 0.00 77 1014.0
20260507063242 54 27 0.9 1.7 0.00 0.00 0.00 78 1014.1
20260507062739 54 53 0.0 0.9 0.00 0.00 0.00 78 1014.0
20260507062237 54 40 1.7 2.6 0.00 0.00 0.00 76 1014.2
20260507061735 54 54 0.0 1.7 0.00 0.00 0.00 77 1014.1
20260507061232 54 58 0.0 1.7 0.00 0.00 0.00 78 1014.3
20260507060730 54 62 0.0 2.6 0.00 0.00 0.00 77 1014.2
20260507060227 54 54 1.7 2.6 0.00 0.00 0.00 77 1014.2
20260507055723 54 2 4.3 5.2 0.00 0.00 0.00 76 1014.3
20260507055218 54 10 1.7 1.7 0.00 0.00 0.00 77 1014.4
20260507054715 54 348 0.9 3.5 0.00 0.00 0.00 78 1014.3
20260507054212 55 32 0.9 1.7 0.00 0.00 0.00 78 1014.2
20260507053709 55 41 0.0 2.6 0.00 0.00 0.00 78 1014.3
20260507053207 55 83 0.9 3.5 0.00 0.00 0.00 78 1014.1
20260507052706 55 29 3.5 3.5 0.00 0.00 0.00 78 1013.8
20260507052201 55 7 2.6 7.0 0.00 0.00 0.00 77 1013.8
20260507051659 55 42 2.6 3.5 0.00 0.00 0.00 77 1013.8
20260507051156 55 33 4.3 5.2 0.00 0.00 0.00 77 1013.9
20260507050653 55 20 4.3 6.1 0.00 0.00 0.00 78 1013.9
20260507050149 55 27 0.9 3.5 0.00 0.00 0.00 79 1013.9
20260507045646 55 49 2.6 3.5 0.00 0.00 0.00 79 1013.9
20260507045143 55 58 1.7 3.5 0.00 0.00 0.00 79 1013.9
20260507044640 55 78 1.7 2.6 0.00 0.00 0.00 79 1013.9
20260507044137 55 48 0.9 5.2 0.00 0.00 0.00 80 1013.9
20260507043633 55 22 4.3 7.0 0.00 0.00 0.00 80 1013.6
20260507043130 55 39 2.6 3.5 0.00 0.00 0.00 81 1013.8
20260507042626 55 8 2.6 5.2 0.00 0.00 0.00 82 1013.7
20260507042121 55 39 1.7 2.6 0.00 0.00 0.00 82 1013.8
20260507041618 55 44 0.9 2.6 0.00 0.00 0.00 83 1014.1
20260507041115 55 82 0.0 0.0 0.00 0.00 0.00 83 1014.1
20260507040612 55 82 0.9 0.9 0.00 0.00 0.00 83 1014.1
20260507040108 55 60 0.0 0.9 0.00 0.17 0.17 83 1013.8
20260507035604 55 60 0.0 0.9 0.00 0.17 0.17 83 1013.8
20260507035100 55 46 1.7 6.1 0.00 0.17 0.17 82 1014.1
20260507034557 55 352 1.7 6.1 0.00 0.17 0.17 83 1014.2
20260507034055 55 353 1.7 3.5 0.00 0.17 0.17 83 1013.8
20260507033553 55 4 3.5 5.2 0.00 0.17 0.17 83 1013.5
20260507033050 55 56 0.0 0.0 0.00 0.17 0.17 83 1013.8
20260507032547 56 19 0.9 1.7 0.00 0.17 0.17 83 1013.8
20260507032043 55 63 0.9 1.7 0.00 0.17 0.17 82 1013.8
20260507031540 56 8 0.0 0.0 0.00 0.17 0.17 83 1013.9
20260507031037 56 9 0.9 1.7 0.00 0.17 0.17 82 1013.8
20260507030534 56 44 4.3 7.0 0.00 0.17 0.17 82 1014.0
20260507030032 56 46 0.9 1.7 0.00 0.17 0.17 83 1014.0
20260507025528 56 55 1.7 5.2 0.00 0.17 0.17 83 1014.0
20260507025026 56 321 3.5 6.1 0.00 0.17 0.17 83 1014.1
20260507024523 56 51 3.5 5.2 0.00 0.17 0.17 84 1013.9
20260507024020 56 300 1.7 7.0 0.00 0.17 0.17 84 1013.8
20260507023516 56 53 3.5 3.5 0.00 0.17 0.17 84 1013.5
20260507023014 56 336 4.3 7.0 0.00 0.17 0.17 84 1013.3
20260507022510 56 31 6.1 8.7 0.00 0.17 0.17 84 1013.2
20260507022006 56 40 4.3 7.0 0.00 0.17 0.17 84 1013.4
20260507021502 56 35 1.7 6.1 0.00 0.17 0.17 85 1013.5
20260507020959 56 31 1.7 7.0 0.00 0.17 0.17 84 1013.4
20260507020456 57 49 5.2 6.1 0.00 0.17 0.17 85 1013.3
20260507015952 57 55 1.7 6.1 0.00 0.17 0.17 85 1013.2
20260507015451 57 120 2.6 2.6 0.00 0.17 0.17 84 1013.2
20260507014948 57 76 2.6 3.5 0.00 0.17 0.17 84 1013.1
20260507014444 57 82 2.6 6.1 0.00 0.17 0.17 83 1013.0
20260507013940 58 45 1.7 7.8 0.00 0.17 0.17 83 1012.8
20260507013437 58 43 1.7 6.1 0.00 0.17 0.17 82 1013.1
20260507012935 58 54 0.9 11.3 0.00 0.17 0.17 82 1012.9
20260507012431 58 29 5.2 7.8 0.00 0.17 0.17 82 1012.8
20260507011928 58 27 5.2 7.0 0.00 0.17 0.17 83 1013.0
20260507011426 59 28 2.6 3.5 0.00 0.17 0.17 84 1013.0
20260507010925 59 28 2.6 3.5 0.00 0.17 0.17 84 1013.0
20260507010421 59 42 0.0 1.7 0.00 0.17 0.17 81 1012.7
20260507005918 59 66 0.0 2.6 0.00 0.17 0.17 82 1012.8
20260507005415 60 71 1.7 6.1 0.00 0.17 0.17 80 1012.7
20260507004911 60 114 4.3 5.2 0.00 0.17 0.17 80 1013.1
20260507004408 60 36 0.9 1.7 0.00 0.17 0.17 80 1013.3
20260507003906 60 71 0.0 2.6 0.00 0.17 0.17 80 1013.1
20260507003401 60 111 2.6 2.6 0.00 0.17 0.17 81 1013.2
20260507002856 60 31 1.7 2.6 0.00 0.17 0.17 81 1012.8
20260507002352 60 91 1.7 5.2 0.00 0.17 0.17 82 1012.6
20260507001850 60 174 0.0 1.7 0.00 0.17 0.17 84 1012.5
20260507001346 60 53 0.0 2.6 0.00 0.17 0.17 83 1012.4
20260507000843 61 105 0.9 2.6 0.00 0.17 0.17 83 1012.4
20260507000338 61 297 2.6 7.0 0.00 0.17 0.17 80 1012.4
20260506235835 61 45 4.3 9.6 0.00 0.17 0.17 80 1012.4
20260506235332 62 136 0.0 7.0 0.00 0.17 0.17 79 1011.9
20260506234828 61 323 0.9 2.6 0.00 0.17 0.17 82 1012.2
20260506234326 62 93 0.0 0.0 0.00 0.17 0.17 84 1011.8
20260506233824 62 258 0.0 5.2 0.00 0.17 0.17 82 1012.1
20260506233319 62 233 0.0 0.9 0.00 0.17 0.17 83 1011.7
20260506232816 62 46 1.7 3.5 0.00 0.17 0.17 83 1011.4
20260506232311 62 353 1.7 5.2 0.00 0.17 0.17 83 1011.4
20260506231808 63 22 2.6 7.8 0.00 0.17 0.17 82 1011.4
20260506231306 63 39 0.9 3.5 0.00 0.17 0.17 84 1011.4
20260506230803 63 250 0.9 7.8 0.00 0.17 0.17 83 1011.0
20260506230300 63 277 1.7 2.6 0.00 0.17 0.17 84 1011.3
20260506225756 63 30 2.6 3.5 0.00 0.17 0.17 86 1011.3
20260506225254 63 335 1.7 2.6 0.00 0.17 0.17 88 1011.2
20260506224750 64 35 0.9 6.1 0.00 0.17 0.17 89 1011.0
20260506224248 64 73 2.6 6.1 0.00 0.17 0.17 87 1011.0
20260506223744 64 46 3.5 7.0 0.00 0.17 0.17 86 1011.2
20260506223240 64 42 3.5 5.2 0.00 0.17 0.17 87 1011.2
20260506222737 64 43 1.7 3.5 0.00 0.17 0.17 86 1011.2
20260506222232 65 308 3.5 5.2 0.00 0.17 0.17 85 1010.9
20260506221730 65 257 0.9 8.7 0.00 0.17 0.17 86 1011.0
20260506221228 65 308 1.7 5.2 0.00 0.17 0.17 86 1010.9
20260506220725 65 51 1.7 1.7 0.00 0.17 0.17 88 1010.8
20260506220219 65 25 0.0 1.7 0.00 0.17 0.17 89 1010.7
20260506215717 65 261 0.9 2.6 0.00 0.17 0.17 87 1010.7
20260506215212 65 322 1.7 2.6 0.00 0.17 0.17 87 1010.6
20260506214709 65 329 2.6 5.2 0.00 0.17 0.17 86 1010.3
20260506214206 65 258 1.7 11.3 0.00 0.17 0.17 86 1010.5
20260506213705 65 304 3.5 3.5 0.00 0.17 0.17 89 1010.2
20260506213202 65 348 0.9 1.7 0.00 0.17 0.17 91 1010.4
20260506212659 65 295 0.9 2.6 0.00 0.17 0.17 92 1010.4
20260506212154 64 346 1.7 5.2 0.00 0.17 0.17 95 1010.5
20260506211649 65 290 0.0 1.7 0.00 0.17 0.17 96 1010.5
20260506211146 65 289 1.7 1.7 0.07 0.17 0.17 96 1010.4
20260506210643 65 122 0.0 0.9 0.07 0.17 0.17 95 1010.4
20260506210140 65 122 0.0 0.9 0.00 0.16 0.16 95 1010.1
20260506205637 65 122 1.7 1.7 0.00 0.16 0.16 94 1009.9
20260506205131 65 130 1.7 1.7 0.00 0.16 0.16 94 1009.9
20260506204630 65 132 0.0 0.0 0.00 0.16 0.16 93 1009.7
20260506204126 65 132 0.0 0.0 0.00 0.16 0.16 93 1009.7
20260506203625 65 132 0.0 0.0 0.00 0.16 0.16 93 1009.8
20260506203121 66 132 0.0 0.9 0.00 0.16 0.16 92 1009.8
20260506202619 66 132 0.0 0.9 0.00 0.16 0.16 91 1009.6
20260506202115 66 132 0.0 0.0 0.00 0.16 0.16 92 1009.8
20260506201612 66 132 0.0 0.9 0.00 0.16 0.16 91 1009.4
20260506201109 66 132 0.9 0.9 0.00 0.16 0.16 91 1009.6
20260506200605 66 132 0.0 1.7 0.00 0.16 0.16 90 1009.7
20260506195559 67 147 0.9 1.7 0.00 0.16 0.16 89 1009.6
20260506195055 66 147 0.9 1.7 0.00 0.16 0.16 89 1009.6
20260506194553 66 249 0.9 0.9 0.00 0.16 0.16 90 1009.7
20260506194049 66 249 0.0 0.9 0.00 0.16 0.16 91 1009.7
20260506193547 66 249 0.9 1.7 0.00 0.16 0.16 89 1009.7
20260506193044 66 158 0.9 0.9 0.00 0.16 0.16 91 1009.7
20260506192541 66 158 0.9 0.9 0.00 0.16 0.16 91 1009.7
20260506192036 66 158 1.7 1.7 0.00 0.16 0.16 90 1009.8
20260506191534 66 158 0.0 0.0 0.00 0.16 0.16 91 1009.7
20260506191029 66 158 0.0 0.9 0.00 0.16 0.16 91 1009.6
20260506190527 66 158 0.0 0.9 0.00 0.16 0.16 90 1009.9
20260506190024 66 158 1.7 2.6 0.00 0.16 0.16 89 1009.7